| time (UTC) | temp F | wind direction | speed MPH | gust MPH | rain 1hr in | rain 24hr in | rain mn in | humidity % | barometer mb |
| 20260506072725 | 46 | 248 | 14.0 | 14.0 | 0.00 | 0.00 | 0.00 | 78 | 1014.0 |
| 20260506070724 | 45 | 251 | 13.0 | 13.0 | 0.00 | 0.00 | 0.00 | 78 | 1013.8 |
| 20260506060724 | 45 | 261 | 12.0 | 13.0 | 0.00 | 0.00 | 0.00 | 74 | 1013.4 |
| 20260506050723 | 43 | 272 | 11.0 | 13.0 | 0.00 | 0.00 | 0.00 | 73 | 1012.9 |
| 20260506044724 | 43 | 281 | 12.0 | 14.0 | 0.00 | 0.00 | 0.00 | 71 | 1012.6 |
| 20260506042723 | 43 | 293 | 12.0 | 13.0 | 0.00 | 0.00 | 0.00 | 70 | 1012.4 |
| 20260506040723 | 42 | 298 | 11.0 | 13.0 | 0.00 | 0.00 | 0.00 | 75 | 1012.2 |
| 20260506034724 | 42 | 299 | 12.0 | 14.0 | 0.00 | 0.00 | 0.00 | 75 | 1012.0 |
| 20260506032723 | 40 | 297 | 11.0 | 14.0 | 0.00 | 0.00 | 0.00 | 80 | 1011.8 |
| 20260506030723 | 40 | 294 | 13.0 | 15.0 | 0.00 | 0.00 | 0.00 | 83 | 1011.6 |
| 20260506024723 | 39 | 288 | 14.0 | 17.0 | 0.00 | 0.00 | 0.00 | 87 | 1011.4 |
| 20260506022723 | 39 | 256 | 16.0 | 18.0 | 0.00 | 0.00 | 0.00 | 97 | 1011.4 |
| 20260506020723 | 39 | 249 | 15.0 | 16.0 | 0.00 | 0.00 | 0.00 | 97 | 1011.2 |
| 20260506014723 | 39 | 252 | 13.0 | 15.0 | 0.00 | 0.00 | 0.00 | 97 | 1011.0 |
| 20260506012723 | 39 | 252 | 12.0 | 13.0 | 0.00 | 0.00 | 0.00 | 97 | 1010.7 |
| 20260506010723 | 38 | 252 | 11.0 | 12.0 | 0.00 | 0.00 | 0.00 | 96 | 1010.6 |
| 20260506004722 | 38 | 255 | 11.0 | 12.0 | 0.00 | 0.00 | 0.00 | 95 | 1010.4 |
| 20260506002723 | 39 | 263 | 12.0 | 13.0 | 0.00 | 0.00 | 0.00 | 92 | 1010.3 |
| 20260506000723 | 39 | 282 | 14.0 | 15.0 | 0.00 | 0.00 | 0.00 | 89 | 1010.3 |
| 20260505234723 | 39 | 285 | 11.0 | 12.0 | 0.00 | 0.00 | 0.00 | 89 | 1010.1 |
| 20260505232723 | 39 | 280 | 13.0 | 14.0 | 0.00 | 0.00 | 0.00 | 90 | 1010.0 |
| 20260505230722 | 39 | 279 | 14.0 | 15.0 | 0.00 | 0.00 | 0.00 | 91 | 1009.9 |
| 20260505224722 | 39 | 282 | 14.0 | 15.0 | 0.00 | 0.00 | 0.00 | 91 | 1009.9 |
| 20260505222722 | 40 | 284 | 15.0 | 16.0 | 0.00 | 0.00 | 0.00 | 90 | 1009.9 |
| 20260505220723 | 40 | 285 | 15.0 | 16.0 | 0.00 | 0.00 | 0.00 | 89 | 1009.8 |
| 20260505214723 | 40 | 284 | 16.0 | 17.0 | 0.00 | 0.00 | 0.00 | 90 | 1009.7 |
| 20260505212722 | 40 | 281 | 18.0 | 20.0 | 0.00 | 0.00 | 0.00 | 88 | 1009.7 |
| 20260505210721 | 40 | 287 | 19.0 | 21.0 | 0.00 | 0.00 | 0.00 | 86 | 1009.6 |
| 20260505204722 | 40 | 283 | 19.0 | 21.0 | 0.00 | 0.00 | 0.00 | 78 | 1009.4 |
| 20260505202722 | 40 | 280 | 20.0 | 22.0 | 0.00 | 0.00 | 0.00 | 78 | 1009.3 |
| 20260505200722 | 40 | 283 | 19.0 | 21.0 | 0.00 | 0.00 | 0.00 | 75 | 1009.1 |
| 20260505194721 | 40 | 273 | 18.0 | 19.0 | 0.00 | 0.00 | 0.00 | 91 | 1009.0 |
| 20260505192722 | 40 | 270 | 19.0 | 20.0 | 0.00 | 0.00 | 0.00 | 92 | 1009.0 |
| 20260505190721 | 40 | 270 | 20.0 | 22.0 | 0.00 | 0.00 | 0.00 | 88 | 1008.9 |
| 20260505184721 | 40 | 268 | 21.0 | 23.0 | 0.00 | 0.00 | 0.00 | 89 | 1008.8 |
| 20260505182721 | 41 | 264 | 21.0 | 23.0 | 0.00 | 0.00 | 0.00 | 81 | 1008.6 |
| 20260505180721 | 41 | 266 | 23.0 | 25.0 | 0.00 | 0.00 | 0.00 | 79 | 1008.4 |
| 20260505174721 | 41 | 262 | 20.0 | 21.0 | 0.00 | 0.00 | 0.00 | 83 | 1008.3 |
| 20260505172721 | 42 | 256 | 21.0 | 23.0 | 0.00 | 0.00 | 0.00 | 83 | 1008.2 |
| 20260505170720 | 42 | 257 | 24.0 | 26.0 | 0.00 | 0.00 | 0.00 | 83 | 1008.1 |
| 20260505164721 | 43 | 260 | 24.0 | 25.0 | 0.00 | 0.00 | 0.00 | 82 | 1008.1 |
| 20260505162721 | 43 | 261 | 25.0 | 27.0 | 0.00 | 0.00 | 0.00 | 81 | 1008.1 |
| 20260505160721 | 44 | 260 | 24.0 | 27.0 | 0.00 | 0.00 | 0.00 | 78 | 1008.0 |
| 20260505152720 | 44 | 260 | 25.0 | 27.0 | 0.00 | 0.00 | 0.00 | 74 | 1007.9 |
| 20260505150721 | 45 | 261 | 24.0 | 26.0 | 0.00 | 0.00 | 0.00 | 75 | 1008.0 |
| 20260505124720 | 47 | 262 | 25.0 | 28.0 | 0.00 | 0.00 | 0.00 | 71 | 1007.2 |
| 20260505122720 | 47 | 263 | 23.0 | 26.0 | 0.00 | 0.00 | 0.00 | 68 | 1007.1 |
| 20260505120720 | 47 | 270 | 21.0 | 25.0 | 0.00 | 0.00 | 0.00 | 65 | 1006.9 |
| 20260505114720 | 46 | 274 | 22.0 | 25.0 | 0.00 | 0.00 | 0.00 | 67 | 1006.8 |
| 20260505112720 | 47 | 274 | 23.0 | 26.0 | 0.00 | 0.00 | 0.00 | 68 | 1006.6 |
| 20260505110719 | 47 | 277 | 25.0 | 28.0 | 0.00 | 0.00 | 0.00 | 68 | 1006.4 |
| 20260505100720 | 47 | 270 | 25.0 | 28.0 | 0.00 | 0.01 | 0.00 | 72 | 1005.8 |
| 20260505094719 | 47 | 270 | 26.0 | 28.0 | 0.00 | 0.06 | 0.00 | 74 | 1005.5 |
| 20260505092719 | 46 | 267 | 27.0 | 29.0 | 0.00 | 0.06 | 0.00 | 78 | 1005.2 |
| 20260505090719 | 47 | 271 | 26.0 | 28.0 | 0.00 | 0.06 | 0.00 | 71 | 1004.9 |
| 20260505084720 | 46 | 270 | 26.0 | 28.0 | 0.00 | 0.12 | 0.00 | 78 | 1004.6 |
| 20260505082719 | 46 | 274 | 27.0 | 29.0 | 0.00 | 0.12 | 0.00 | 80 | 1004.2 |
| 20260505080719 | 48 | 277 | 27.0 | 30.0 | 0.00 | 0.12 | 0.00 | 72 | 1004.0 |
| 20260505074719 | 47 | 276 | 28.0 | 31.0 | 0.00 | 0.12 | 0.00 | 73 | 1003.6 |